TimeCDT,TemperatureF,Dew PointF,Humidity,Sea Level PressureIn,VisibilityMPH,Wind Direction,Wind SpeedMPH,Gust SpeedMPH,PrecipitationIn,Events,Conditions,WindDirDegrees,DateUTC
12:15 AM,69.8,53.6,56,30.06,10.0,NNW,5.8,-,N/A,,Clear,340,2013-07-02 05:15:00
12:35 AM,69.8,53.6,56,30.06,10.0,North,6.9,-,N/A,,Clear,350,2013-07-02 05:35:00
12:55 AM,68.0,53.6,60,30.06,10.0,North,6.9,-,N/A,,Clear,350,2013-07-02 05:55:00
1:15 AM,68.0,53.6,60,30.05,10.0,North,8.1,-,N/A,,Clear,350,2013-07-02 06:15:00
1:35 AM,69.8,55.4,60,30.05,10.0,NNW,5.8,-,N/A,,Clear,330,2013-07-02 06:35:00
1:55 AM,68.0,55.4,64,30.05,10.0,WNW,6.9,-,N/A,,Clear,300,2013-07-02 06:55:00
2:15 AM,68.0,55.4,64,30.05,10.0,North,6.9,-,N/A,,Clear,350,2013-07-02 07:15:00
2:35 AM,66.2,55.4,68,30.05,10.0,NNW,5.8,-,N/A,,Clear,340,2013-07-02 07:35:00
2:55 AM,64.4,55.4,73,30.05,10.0,North,6.9,-,N/A,,Clear,350,2013-07-02 07:55:00
3:15 AM,64.4,55.4,73,30.05,10.0,North,8.1,-,N/A,,Clear,350,2013-07-02 08:15:00
3:35 AM,64.4,55.4,73,30.05,10.0,NW,8.1,-,N/A,,Clear,320,2013-07-02 08:35:00
3:55 AM,64.4,53.6,68,30.05,10.0,WNW,8.1,-,N/A,,Clear,290,2013-07-02 08:55:00
4:15 AM,64.4,53.6,68,30.05,10.0,NNW,8.1,-,N/A,,Clear,330,2013-07-02 09:15:00
4:35 AM,62.6,53.6,72,30.05,10.0,North,8.1,-,N/A,,Clear,350,2013-07-02 09:35:00
4:55 AM,62.6,53.6,72,30.06,10.0,North,6.9,-,N/A,,Clear,350,2013-07-02 09:55:00
5:15 AM,62.6,53.6,72,30.06,10.0,North,6.9,-,N/A,,Clear,350,2013-07-02 10:15:00
5:35 AM,62.6,53.6,72,30.06,10.0,NNW,6.9,-,N/A,,Clear,340,2013-07-02 10:35:00
5:55 AM,62.6,53.6,72,30.07,10.0,NNW,5.8,-,N/A,,Clear,340,2013-07-02 10:55:00
6:15 AM,60.8,53.6,77,30.08,10.0,North,6.9,-,N/A,,Clear,350,2013-07-02 11:15:00
6:35 AM,60.8,53.6,77,30.08,10.0,NNW,6.9,-,N/A,,Clear,340,2013-07-02 11:35:00
6:55 AM,62.6,53.6,72,30.08,10.0,North,8.1,-,N/A,,Clear,350,2013-07-02 11:55:00
7:15 AM,62.6,53.6,72,30.09,10.0,North,6.9,-,N/A,,Clear,350,2013-07-02 12:15:00
7:35 AM,64.4,53.6,68,30.09,10.0,NNW,6.9,-,N/A,,Clear,340,2013-07-02 12:35:00
7:55 AM,68.0,53.6,60,30.10,10.0,NW,5.8,-,N/A,,Clear,320,2013-07-02 12:55:00
8:15 AM,69.8,53.6,56,30.10,10.0,NW,5.8,-,N/A,,Clear,320,2013-07-02 13:15:00
8:35 AM,71.6,55.4,57,30.11,10.0,NNW,6.9,-,N/A,,Clear,340,2013-07-02 13:35:00
8:55 AM,71.6,55.4,57,30.11,10.0,NNW,5.8,-,N/A,,Clear,340,2013-07-02 13:55:00
9:15 AM,73.4,53.6,50,30.11,10.0,NNE,10.4,-,N/A,,Clear,30,2013-07-02 14:15:00
9:35 AM,75.2,55.4,50,30.11,10.0,North,8.1,-,N/A,,Clear,10,2013-07-02 14:35:00
9:55 AM,77.0,55.4,47,30.11,10.0,NNW,10.4,-,N/A,,Clear,340,2013-07-02 14:55:00
10:15 AM,78.8,53.6,42,30.12,10.0,NNE,10.4,16.1,N/A,,Clear,20,2013-07-02 15:15:00
10:35 AM,78.8,53.6,42,30.11,10.0,NE,9.2,-,N/A,,Clear,40,2013-07-02 15:35:00
10:55 AM,80.6,51.8,37,30.11,10.0,NNE,9.2,-,N/A,,Clear,30,2013-07-02 15:55:00
11:15 AM,80.6,50.0,34,30.11,10.0,North,8.1,-,N/A,,Clear,10,2013-07-02 16:15:00
11:35 AM,80.6,50.0,34,30.12,10.0,NE,5.8,-,N/A,,Clear,50,2013-07-02 16:35:00
11:55 AM,82.4,50.0,32,30.11,10.0,North,11.5,-,N/A,,Clear,10,2013-07-02 16:55:00
12:15 PM,82.4,50.0,32,30.11,10.0,NE,6.9,19.6,N/A,,Clear,40,2013-07-02 17:15:00
12:35 PM,82.4,50.0,32,30.11,10.0,NNE,12.7,18.4,N/A,,Clear,20,2013-07-02 17:35:00
12:55 PM,84.2,50.0,30,30.10,10.0,NNE,12.7,18.4,N/A,,Clear,30,2013-07-02 17:55:00
1:15 PM,84.2,50.0,30,30.10,10.0,NNE,15.0,18.4,N/A,,Clear,20,2013-07-02 18:15:00
1:35 PM,86.0,48.2,27,30.09,10.0,NE,11.5,16.1,N/A,,Scattered Clouds,40,2013-07-02 18:35:00
1:55 PM,86.0,50.0,29,30.09,10.0,North,13.8,18.4,N/A,,Scattered Clouds,350,2013-07-02 18:55:00
2:15 PM,86.0,50.0,29,30.08,10.0,North,6.9,17.3,N/A,,Scattered Clouds,350,2013-07-02 19:15:00
2:35 PM,86.0,50.0,29,30.07,10.0,North,8.1,-,N/A,,Scattered Clouds,360,2013-07-02 19:35:00
2:55 PM,84.2,50.0,30,30.07,10.0,North,6.9,16.1,N/A,,Scattered Clouds,360,2013-07-02 19:55:00
3:15 PM,86.0,50.0,29,30.06,10.0,North,8.1,17.3,N/A,,Clear,360,2013-07-02 20:15:00
3:35 PM,87.8,50.0,27,30.06,10.0,NNW,10.4,-,N/A,,Scattered Clouds,340,2013-07-02 20:35:00
3:55 PM,87.8,50.0,27,30.05,10.0,North,11.5,-,N/A,,Scattered Clouds,360,2013-07-02 20:55:00
4:15 PM,86.0,48.2,27,30.05,10.0,North,12.7,-,N/A,,Scattered Clouds,350,2013-07-02 21:15:00
4:35 PM,87.8,48.2,25,30.04,10.0,North,8.1,16.1,N/A,,Clear,350,2013-07-02 21:35:00
4:55 PM,86.0,46.4,25,30.04,10.0,NE,9.2,-,N/A,,Scattered Clouds,40,2013-07-02 21:55:00
5:15 PM,87.8,48.2,25,30.04,10.0,NNE,8.1,-,N/A,,Scattered Clouds,30,2013-07-02 22:15:00
5:35 PM,87.8,48.2,25,30.03,10.0,NE,8.1,-,N/A,,Clear,40,2013-07-02 22:35:00
5:55 PM,86.0,50.0,29,30.03,10.0,NE,6.9,-,N/A,,Clear,50,2013-07-02 22:55:00
6:15 PM,86.0,50.0,29,30.03,10.0,NE,8.1,-,N/A,,Clear,40,2013-07-02 23:15:00
6:35 PM,86.0,50.0,29,30.03,10.0,NNE,8.1,-,N/A,,Clear,30,2013-07-02 23:35:00
6:55 PM,86.0,50.0,29,30.03,10.0,NE,6.9,-,N/A,,Clear,40,2013-07-02 23:55:00
7:15 PM,86.0,50.0,29,30.03,10.0,NNE,5.8,-,N/A,,Clear,20,2013-07-03 00:15:00
7:35 PM,84.2,51.8,33,30.03,10.0,NE,4.6,-,N/A,,Clear,40,2013-07-03 00:35:00
7:55 PM,82.4,53.6,37,30.03,10.0,ENE,3.5,-,N/A,,Clear,60,2013-07-03 00:55:00
8:15 PM,80.6,55.4,42,30.03,10.0,ENE,3.5,-,N/A,,Clear,60,2013-07-03 01:15:00
8:35 PM,77.0,55.4,47,30.04,10.0,Calm,Calm,-,N/A,,Clear,0,2013-07-03 01:35:00
8:55 PM,75.2,53.6,47,30.04,10.0,Calm,Calm,-,N/A,,Clear,0,2013-07-03 01:55:00
9:15 PM,73.4,53.6,50,30.04,7.0,Calm,Calm,-,N/A,,Clear,0,2013-07-03 02:15:00
9:35 PM,73.4,53.6,50,30.04,10.0,Calm,Calm,-,N/A,,Clear,0,2013-07-03 02:35:00
9:55 PM,71.6,55.4,57,30.05,10.0,Calm,Calm,-,N/A,,Clear,0,2013-07-03 02:55:00
10:15 PM,69.8,57.2,64,30.05,5.0,Calm,Calm,-,N/A,,Haze,0,2013-07-03 03:15:00
10:35 PM,69.8,57.2,64,30.06,7.0,Calm,Calm,-,N/A,,Clear,0,2013-07-03 03:35:00
10:55 PM,69.8,55.4,60,30.07,10.0,Calm,Calm,-,N/A,,Clear,0,2013-07-03 03:55:00
11:15 PM,69.8,55.4,60,30.07,10.0,Calm,Calm,-,N/A,,Clear,0,2013-07-03 04:15:00
11:35 PM,69.8,55.4,60,30.07,10.0,Calm,Calm,-,N/A,,Clear,0,2013-07-03 04:35:00
11:55 PM,69.8,53.6,56,30.07,10.0,Calm,Calm,-,N/A,,Clear,0,2013-07-03 04:55:00